星链-5421 (STARLINK-5421 )

导读

STARLINK-5421是美国SpaceX公司星链互联网卫星星座的一员,于2022年12月17日发射,属于星链低轨卫星组网的组成部分。 它运行在近550公里左右的近地轨道,重量约300千克,承担为全球偏远地区、特殊场景提供高速低延迟宽带互联网接入服务的功能,是星链全球卫星网络布局中一颗典型的第二代组网卫星,助力星链实现全球无缝覆盖的通信目标。

基本信息
目录编号:
54799
目录名称:
STARLINK-5421
国际标识:
2022-175AT
轨道中心:
EARTH
卫星名称:
星链-5421
卫星全名:
星链-5421 (STARLINK-5421 )
卫星状态:
在轨 (已飞行1357 天)
发射日期:
2022-12-17 UTC
国别 :
美国 (US)
星等 :
--
轨道信息
数据来源 国际轨道数据
星历时间: 2026-09-04T01:18:14+0800
11小时前
查看轨道信息
半长轴: 6837.865km
偏心率: 0.0001367
轨道倾角: 53.160°
近地点辐角 62.428°
升交点赤经 296.067°
平近点角 297.687°
近地点: 458.793km
远地点: 460.663km
周期: 93.787分钟
每日圈数: 15.354018
详细信息
固有亮度:
5
最大亮度:
2.5
卫星平台:
Starlink v1.5
覆盖范围:
全球
运营商:
太空探索技术公司
运营商所在国:
美国
制造商(研发单位):
太空探索技术公司
制造商所在国:
美国
使用方式:
暂无
卫星简介
星链(Starlink)计划是由太空探索技术公司(SpaceX)提出的一个巨型低轨卫星互联网星座项目,计划在2019年至2024年间在太空搭建由约1.2万颗卫星组成的“星链”网络,其中1584颗将部署在地球上空550千米处的近地轨道,并从2020年开始工作。该卫星仍在工作。
2D轨道图
3D轨道图
轨道高度分析图
轨道倾角分析图
轨道综合分析图
查看轨道综合分析图
交会数据列表
事件ID 空间交会对象 最接近时刻(TCA) 交会距离 交会风险概率(CRP) 交会风险指数(CRI) 操作
CDM_260904-042705-479906-503221
2026-09-04T
04:27:08+0000
1.803 km
极远距离
2.950395E-6 低风险 0.44
CDM_260904-011805-479906-823221
2026-09-04T
01:18:51+0000
1.915 km
极远距离
2.558217E-6 低风险 0.43
CDM_260830-170405-479906-807521
2026-08-30T
17:04:03+0000
2.498 km
极远距离
1.489599E-6 低风险 0.38
CDM_260904-094205-479905-875421
2026-09-04T
09:42:03+0000
2.547 km
极远距离
1.351676E-6 低风险 0.38
CDM_260905-084805-479906-583621
2026-09-05T
08:48:21+0000
2.582 km
极远距离
8.465783E-7 极低风险 0.34